DateTimeUTC,F1_A11,F1_S11,BsB_S11,BsG_S11,BsR_S11,BbsB_S11,BbsG_S11,BbsR_S11,BaB_A11,BaG_A11,BaR_A11,Tu_S11,T_S11,Uu_S11,U_S11,P_S11,T1_A11
2021-04-03T10:00:00Z,00040200,21000000,,,,,,,0000.26,-000.04,0000.43,15.4,22.9,,00.0,0650.0,30.9
2021-04-03T10:01:00Z,00040200,21000000,,,,,,,-000.20,-000.23,-000.45,15.4,22.9,,00.0,0650.0,30.9
2021-04-03T10:02:00Z,00040200,21000000,,,,,,,0000.48,0000.33,-000.03,15.4,22.9,,00.0,0650.0,30.9
2021-04-03T10:03:00Z,00040200,61000000,,,,,,,0000.23,0001.04,0000.44,15.4,23.0,,00.0,0650.0,30.8
2021-04-03T10:04:00Z,00040200,41000000,0002.45,0001.65,0001.23,0000.20,0000.26,0000.18,0001.28,0000.35,0000.82,15.6,22.8,,00.0,0650.8,30.8
2021-04-03T10:05:00Z,00040200,01000000,0002.55,0002.35,0001.33,0000.65,0000.45,-000.04,0000.51,0000.86,0000.40,15.6,22.7,,00.0,0650.9,30.8
2021-04-03T10:06:00Z,00040200,01000000,0002.67,0002.23,0001.39,0000.52,0000.31,0000.09,0000.93,0000.89,0000.58,15.6,22.6,,00.0,0650.9,30.8
2021-04-03T10:07:00Z,00040200,01000000,0002.97,0002.30,0001.35,0000.02,0000.41,0000.13,0000.82,0000.37,0000.70,15.5,22.6,,00.0,0650.9,30.8
2021-04-03T10:08:00Z,00040200,01000000,0003.37,0001.80,0001.41,0000.73,0000.21,-000.03,0001.05,0000.73,0000.77,15.4,22.6,,00.0,0650.9,30.8
2021-04-03T10:09:00Z,00040200,01000000,0003.55,0002.02,0001.14,0000.32,0000.34,0000.39,0000.52,0000.86,0000.82,15.4,22.5,,00.0,0650.9,30.8
2021-04-03T10:10:00Z,00040200,01000000,0003.51,0001.85,0001.32,0000.33,0000.37,-000.03,0000.82,0000.95,0000.33,15.4,22.5,,00.0,0650.8,30.8
2021-04-03T10:11:00Z,00040200,01000000,0002.96,0002.07,0001.24,0000.03,0000.22,0000.01,0001.01,0000.48,0000.84,15.5,22.5,,00.0,0650.8,30.8
2021-04-03T10:12:00Z,00040200,01000000,0003.13,0001.64,0001.10,0000.51,0000.36,0000.04,0001.16,0000.86,0000.52,15.6,22.5,,00.0,0650.9,30.8
2021-04-03T10:13:00Z,00040200,01000000,0002.84,0001.92,0001.47,0000.33,0000.45,0000.26,0000.69,0000.87,0000.61,15.6,22.6,,00.0,0650.9,30.8
2021-04-03T10:14:00Z,00040200,01000000,0003.16,0002.41,0001.28,0000.79,0000.48,0000.01,0000.89,0000.39,0000.51,15.7,22.6,,00.0,0650.9,30.8
2021-04-03T10:15:00Z,00040200,01000000,0002.77,0002.07,0001.44,-000.11,0000.41,0000.28,0001.09,0001.14,0000.58,15.7,22.6,,00.0,0650.9,30.9
2021-04-03T10:16:00Z,00040200,01000000,0002.48,0001.87,0001.35,0000.40,0000.30,0000.11,0000.77,0000.71,0000.83,15.8,22.6,,00.0,0650.9,30.9
2021-04-03T10:17:00Z,00040200,01000000,0002.74,0002.01,0001.18,0000.54,0000.37,0000.11,0000.77,0001.12,0000.54,15.8,22.7,,00.0,0650.9,30.9
2021-04-03T10:18:00Z,00040200,01000000,0003.33,0002.00,0001.12,0000.61,0000.31,0000.21,0000.30,0000.28,0000.59,15.9,22.7,,00.0,0650.9,30.9
2021-04-03T10:19:00Z,00040200,01000000,0002.37,0001.73,0001.39,0001.15,0000.17,0000.19,0001.02,0000.86,0000.45,15.8,22.7,,00.0,0650.9,30.9
2021-04-03T10:20:00Z,00040200,01000000,0002.56,0001.90,0001.37,0000.31,0000.47,0000.28,0000.39,0000.93,0000.00,15.8,22.7,,00.0,0650.9,30.8
2021-04-03T10:21:00Z,00040200,01000000,0002.72,0001.89,0001.30,0000.40,0000.42,0000.38,0001.04,0000.57,0001.10,15.7,22.6,,00.0,0650.8,30.8
2021-04-03T10:22:00Z,00040200,01000000,0002.07,0001.95,0001.34,0000.05,0000.63,0000.17,0000.77,0000.72,0000.74,15.6,22.6,,00.0,0650.9,30.8
2021-04-03T10:23:00Z,00040200,01000000,0002.38,0001.81,0001.37,-000.01,0000.32,0000.18,0000.90,0000.52,0000.60,15.6,22.6,,00.0,0650.9,30.8
2021-04-03T10:24:00Z,00040200,01000000,0002.18,0001.82,0001.36,0000.60,0000.35,0000.04,0001.00,0001.24,0000.81,15.6,22.5,,00.0,0650.9,30.8
2021-04-03T10:25:00Z,00040200,01000000,0003.12,0002.27,0001.46,0000.63,0000.21,0000.09,0001.01,0000.63,0000.67,15.6,22.5,,00.0,0650.9,30.8
2021-04-03T10:26:00Z,00040200,01000000,0003.56,0002.11,0001.42,0000.95,0000.42,0000.15,0000.68,0001.05,0000.53,15.6,22.6,,00.0,0650.9,30.8
2021-04-03T10:27:00Z,00040200,01000000,0002.85,0002.14,0001.41,-000.17,0000.60,0000.13,0001.47,0001.11,0001.05,15.7,22.6,,00.0,0650.9,30.8
2021-04-03T10:28:00Z,00040200,01000000,0003.33,0002.11,0001.34,0000.45,0000.52,0000.14,0000.43,0000.43,0000.51,15.7,22.6,,00.0,0650.9,30.9
2021-04-03T10:29:00Z,00040200,01000000,0002.93,0001.86,0001.52,0000.53,0000.20,0000.05,0000.60,0000.57,0000.49,15.8,22.6,,00.0,0650.9,30.9
2021-04-03T10:30:00Z,00040200,01000000,0002.87,0001.98,0001.48,0000.50,0000.17,-000.07,0000.89,0001.09,0000.46,15.9,22.7,,00.0,0650.9,30.9
2021-04-03T10:31:00Z,00040200,01000000,0002.77,0001.95,0001.35,0000.57,0000.16,0000.03,0000.68,0000.57,0000.65,16.0,22.7,,00.0,0650.9,30.9
2021-04-03T10:32:00Z,00040200,01000000,0002.76,0001.99,0001.16,0000.24,0000.27,0000.09,0001.01,0000.92,0000.57,16.0,22.7,,00.0,0650.9,30.9
2021-04-03T10:33:00Z,00040200,01000000,0002.50,0001.90,0001.31,0000.38,0000.42,0000.03,0000.90,0000.87,0000.88,16.0,22.7,,00.0,0650.9,30.9
2021-04-03T10:34:00Z,00040200,01000000,0002.25,0001.85,0001.37,0000.20,0000.31,0000.24,0000.84,0000.70,0000.37,16.0,22.7,,00.0,0650.9,30.9
2021-04-03T10:35:00Z,00040200,01000000,0002.28,0001.79,0001.17,0000.36,0000.35,-000.03,0000.71,0000.45,0000.54,15.9,22.7,,00.0,0650.9,30.8
2021-04-03T10:36:00Z,00040200,01000000,0002.80,0001.51,0001.17,0000.34,0000.40,-000.12,0000.89,0000.70,0000.35,15.9,22.7,,00.0,0650.9,30.8
2021-04-03T10:37:00Z,00040200,01000000,0002.86,0001.95,0001.50,0000.10,0000.20,0000.15,0000.42,0000.55,0000.45,15.8,22.7,,00.0,0650.8,30.8
2021-04-03T10:38:00Z,00040200,01000000,0002.72,0001.73,0001.47,0000.24,0000.35,0000.28,0000.84,0000.77,0000.65,15.7,22.6,,00.0,0650.8,30.8
2021-04-03T10:39:00Z,00040200,01000000,0002.85,0002.04,0001.09,0000.20,0000.44,0000.02,0000.87,0000.97,0000.52,15.7,22.6,,00.0,0650.8,30.8
2021-04-03T10:40:00Z,00040200,01000000,0002.95,0002.14,0001.33,0000.55,0000.39,0000.32,0001.29,0000.73,0001.20,15.7,22.6,,00.0,0650.8,30.8
2021-04-03T10:41:00Z,00040200,01000000,0002.54,0002.11,0001.59,0000.59,0000.17,0000.35,0000.98,0001.18,0000.82,15.8,22.6,,00.0,0650.9,30.8
2021-04-03T10:42:00Z,00040200,01000000,0002.17,0001.96,0001.51,0000.68,0000.26,0000.25,0000.98,0000.85,0000.37,15.8,22.6,,00.0,0650.9,30.8
2021-04-03T10:43:00Z,00040200,01000000,0003.42,0001.98,0001.21,0000.37,0000.11,0000.20,0000.71,0000.95,0000.98,15.9,22.7,,00.0,0650.9,30.9
2021-04-03T10:44:00Z,00040200,01000000,0003.01,0002.12,0001.19,0000.40,0000.20,0000.02,0001.41,0000.74,0000.85,16.0,22.7,,00.0,0650.9,30.9
2021-04-03T10:45:00Z,00040200,01000000,0002.66,0001.75,0001.13,0000.33,0000.23,0000.22,0000.11,0000.59,0000.20,16.0,22.7,,00.0,0650.9,30.9
2021-04-03T10:46:00Z,00040200,01000000,0003.26,0001.77,0001.19,0000.66,0000.37,0000.08,0000.88,0000.62,0000.22,16.1,22.7,,00.0,0650.8,30.9
2021-04-03T10:47:00Z,00040200,01000000,0003.13,0002.12,0001.48,0000.13,0000.40,0000.59,0000.42,0000.55,0000.43,16.1,22.8,,00.0,0650.8,30.9
2021-04-03T10:48:00Z,00040200,01000000,0002.49,0002.08,0001.48,0000.43,0000.22,0000.28,0000.64,0000.69,0000.45,16.0,22.8,,00.0,0650.8,30.9
2021-04-03T10:49:00Z,00040200,01000000,0003.19,0001.82,0001.27,0000.52,0000.30,-000.10,0001.05,0000.77,0000.70,16.0,22.7,,00.0,0650.8,30.8
2021-04-03T10:50:00Z,00040200,01000000,0002.70,0001.86,0001.33,0000.21,0000.29,0000.25,0000.57,0000.73,0000.72,15.9,22.7,,00.0,0650.8,30.8
2021-04-03T10:51:00Z,00040200,01000000,0002.70,0001.80,0001.25,0000.82,0000.36,0000.16,0001.03,0000.83,0000.76,15.8,22.7,,00.0,0650.8,30.8
2021-04-03T10:52:00Z,00040200,01000000,0002.98,0002.23,0001.71,0000.43,0000.33,0000.01,0000.32,0000.57,0000.24,15.8,22.7,,00.0,0650.9,30.8
2021-04-03T10:53:00Z,00040200,01000000,0002.76,0001.97,0001.23,0000.03,0000.50,0000.20,0001.43,0001.05,0000.70,15.7,22.6,,00.0,0650.9,30.8
2021-04-03T10:54:00Z,00040200,01000000,0002.68,0001.92,0001.32,0000.53,0000.22,0000.27,0000.99,0000.69,0000.87,15.7,22.6,,00.0,0650.9,30.8
2021-04-03T10:55:00Z,00040200,01000000,0003.61,0001.66,0001.23,0000.41,0000.30,0000.16,0000.58,0000.53,0000.60,15.7,22.6,,00.0,0650.9,30.8
2021-04-03T10:56:00Z,00040200,01000000,0002.64,0002.19,0001.41,0000.61,0000.20,0000.08,0000.82,0000.80,0000.40,15.8,22.6,,00.0,0650.9,30.8
2021-04-03T10:57:00Z,00040200,41000000,,,,,,,0000.53,0000.80,0000.37,15.8,22.7,,00.0,0650.8,30.8
2021-04-03T10:58:00Z,00040200,61000000,,,,,,,0000.01,-000.20,0000.48,15.6,22.8,,00.0,0650.0,30.8
2021-04-03T10:59:00Z,00040200,21000000,,,,,,,-000.10,0000.72,-000.17,15.6,22.9,,00.0,0650.0,30.9
